Content
SEND FEEDBACK

Daily
Averages
Monthly
Summary
Burkina Faso

OUAGADOUGOU, BURKINA FASO


Home > Africa > Burkina Faso
Elevation: 1004 feet     Latitude: 12 21N     Longitude: 001 31W

WEATHER
 
SELECT A DAY
Number of Records: 101,653;   Date Range: 4/27/97 - 7/20/14
 
SHARE

PRINT THIS DATA

[ ← Previous Day ]
WEATHER ALMANAC - FEBRUARY 13, 2013
[ Next Day → ]
[ °C ]   °F
Weather ElementAverageHighLow
Temperature82.2 °F96.8 °F (2:00 pm)68 °F (6:00 am)
Dewpoint24.1 °F43 °F (6:00 am)15.8 °F (5:00 pm)
Humidity12.5 %29 % (6:00 am)4 % (12:00 pm)
Barometer29.88 in29.95 in (9:30 am)29.79 in (6:00 pm)
Wind Speed7.3 mph12.7 mph (9:30 am)
Weather ElementAverage
Visibility4.8 mi
Wind DirectionE (93.9 °)

Weather ElementTotal
Precipitation---
Cooling Degree Days17.4 (Base 65)
Growing Degree Days32.4 (Base 50)
Averaged from 51 records on February 13, 2013
WEATHER CONDITIONS BREAKOUT
WIND DIRECTION BREAKOUT
WEATHER BY HOUR - FEBRUARY 13, 2013
[ °C ]   °F
Local TimeTemperatureDewpointHumidityBarometerVisibilityWind DirectionWind SpeedGust SpeedPrecipitationEventsConditions
12:00 AM78.8 °F33.8 °F20 %29.89 in5.0 miNNE (20°)6.9 mph
12:30 AM77.0 °F33.8 °F21 %29.89 in5.0 miNNE (20°)6.9 mph
1:00 AM77.0 °F32.0 °F19 %29.89 in5.0 miNorth (10°)6.9 mph
1:30 AM77.0 °F30.2 °F18 %29.89 in5.0 miNNE (20°)8.1 mph
2:00 AM77.0 °F28.4 °F17 %29.86 in5.0 miNNE (20°)6.9 mph
2:30 AM75.2 °F28.4 °F18 %29.86 inNorth (360°)5.8 mphClear
3:00 AM75.2 °F26.6 °F17 %29.86 inNorth (360°)4.6 mphClear
3:30 AM73.4 °F26.6 °F18 %29.86 inNorth (360°)5.8 mphClear
4:00 AM73.4 °F26.6 °F18 %29.86 inNorth (360°)5.8 mphClear
4:30 AM73.4 °F26.6 °F18 %29.86 inNorth (360°)4.6 mphClear
5:00 AM71.6 °F24.8 °F17 %29.86 inNorth (360°)4.6 mphClear
5:30 AM71.6 °F24.8 °F17 %29.86 in5.0 miNNE (20°)4.6 mph
6:00 AM69.8 °F26.6 °F20 %29.89 in5.0 miNNE (20°)3.5 mph
6:00 AM68.0 °F43.0 °F29 %29.81 in6.0 miNorth4.6 mphPartly Cloudy
6:30 AM71.6 °F24.8 °F17 %29.89 in5.0 miNorth (360°)4.6 mph
7:00 AM71.6 °F24.8 °F17 %29.89 in3.7 miNorth (360°)5.8 mph
7:30 AM73.4 °F24.8 °F16 %29.89 in2.8 miNorth (10°)5.8 mphHaze
8:00 AM75.2 °F23.0 °F14 %29.92 in2.8 miNNE (20°)8.1 mphHaze
8:30 AM78.8 °F23.0 °F13 %29.92 in3.7 miNNE (20°)10.4 mph
9:00 AM82.4 °F21.2 °F10 %29.92 in3.7 miNNE (20°)11.5 mph
9:30 AM84.2 °F19.4 °F9 %29.95 in5.0 miNNE (30°)12.7 mph
10:00 AM86.0 °F21.2 °F9 %29.95 in5.0 miNNE (30°)10.4 mph
10:30 AM89.6 °F19.4 °F8 %29.95 in5.0 miNNE (20°)12.7 mph
11:00 AM91.4 °F21.2 °F8 %29.92 in5.0 miNNE (20°)10.4 mph
11:30 AM91.4 °F23.0 °F8 %29.92 inNorth (360°)9.2 mphClear
12:00 PM93.2 °F26.6 °F9 %29.89 inNorth (10°)9.2 mphClear
12:00 PM93.0 °F26.0 °F4 %29.84 in6.0 miNorth6.9 mphScattered Clouds
12:30 PM93.2 °F23.0 °F8 %29.89 inNNE (20°)10.4 mphClear
1:00 PM93.2 °F28.4 °F10 %29.86 inNorth (10°)9.2 mphClear
1:30 PM95.0 °F26.6 °F9 %29.86 inNorth (350°)10.4 mphClear
2:00 PM96.8 °F24.8 °F8 %29.86 inNNE (30°)12.7 mphClear
2:30 PM95.0 °F21.2 °F7 %29.83 inNNE (20°)9.2 mphClear
3:00 PM95.0 °F21.2 °F7 %29.83 inNNE (30°)11.5 mphClear
3:30 PM95.0 °F17.6 °F6 %29.83 inNNE (20°)12.7 mphClear
4:00 PM95.0 °F17.6 °F6 %29.83 inNNE (20°)10.4 mphClear
4:30 PM93.2 °F17.6 °F6 %29.83 inNNE (20°)10.4 mphClear
5:00 PM93.2 °F15.8 °F6 %29.83 inNE (40°)10.4 mphClear
5:30 PM91.4 °F19.4 °F7 %29.83 inNNE (20°)8.1 mph
6:00 PM87.8 °F19.4 °F8 %29.83 inNNE (30°)6.9 mphClear
6:00 PM89.0 °F24.0 °F4 %29.79 in6.0 miNNE (20°)4.6 mphScattered Clouds
6:30 PM82.4 °F21.2 °F10 %29.86 in5.0 miNE (40°)6.9 mph
7:00 PM82.4 °F21.2 °F10 %29.86 in5.0 miNE (40°)4.6 mph
7:30 PM82.4 °F24.8 °F12 %29.86 in5.0 miNE (40°)5.8 mph
8:00 PM80.6 °F23.0 °F12 %29.86 in5.0 miNNE (30°)4.6 mph
8:30 PM78.8 °F23.0 °F13 %29.89 in5.0 miNNE (20°)4.6 mph
9:00 PM78.8 °F21.2 °F12 %29.89 in5.0 miNNE (30°)4.6 mph
9:30 PM77.0 °F21.2 °F12 %29.89 in5.0 miNorth (10°)3.5 mph
10:00 PM75.2 °F23.0 °F14 %29.92 in5.0 miNNE (20°)2.3 mph
10:30 PM75.2 °F24.8 °F15 %29.92 in5.0 miNorth (360°)3.5 mph
11:00 PM73.4 °F21.2 °F14 %29.92 inNorth (10°)4.6 mphClear
11:30 PM75.2 °F19.4 °F12 %29.92 inNorth (10°)4.6 mphClear
Hourly data recorded from DFFD, located miles away from Ouagadougou, Burkina Faso







STORIES FROM OUR PARTNERS